Location: Rochester
(43.1610°N, 77.6109°W)
Time: 08:58:00
(UTC-05:00)

CUTE 1.7 + AOD 2 - Pass Details

Date: 20 October 2021
Orbit: 592 x 611 km, 97.6° (Epoch: 04 December)

Event Time Altitude Azimuth Distance (km) Brightness Sun altitude
Rises 04:46:40 0° 22° (NNE) 2,884 ? -30.4°
Reaches altitude 10° 04:49:03 10° 32° (NNE) 1,975 ? -30.0°
Maximum altitude 04:52:56 33° 96° (E) 1,044 ? -29.3°
Enters shadow 04:54:33 25° 137° (SE) 1,255 ? -29.0°
